"2010-10-05 00:00:00",219181,4.625,265,0.829,0.074,19.25,108.3384,20.63,21.53,24.46,0,110.9,13.2,21.45,227.0
"2010-10-05 00:00:30",219182,4.733,265.1,1.297,0.25,19.22,108.3477,20.65,21.55,24.48,0,110.9,13.2,21.48,227.1
"2010-10-05 00:01:00",219183,5.387,268.9,0.85,0.164,19.18,108.3522,20.66,21.55,24.54,0,110.9,13.2,21.49,230.9
"2010-10-05 00:01:30",219184,5.425,269.7,1.289,0.122,19.18,108.3508,20.66,21.55,24.57,0,110.9,13.2,21.48,231.7
"2010-10-05 00:02:00",219185,5.074,266.4,0.817,0.168,19.13,108.3457,20.65,21.55,24.65,0,110.9,13.2,21.47,228.4
"2010-10-05 00:02:30",219186,4.905,268.3,1.183,0.09,19.17,108.3409,20.63,21.54,24.59,0,110.9,13.2,21.46,230.3
"2010-10-05 00:03:00",219187,5.107,267.3,1.158,0.181,19.12,108.3375,20.63,21.53,24.74,0,110.9,13.2,21.45,229.3
"2010-10-05 00:03:30",219188,5.265,264.6,1.355,0.114,19.14,108.3361,20.62,21.53,24.86,0,110.9,13.2,21.45,226.6
"2010-10-05 00:04:00",219189,5.274,260.5,1.311,0.073,19.1,108.3361,20.62,21.52,24.87,0,110.9,13.2,21.45,222.5
"2010-10-05 00:04:30",219190,5.045,260.3,1.613,0.082,19.21,108.3361,20.62,21.52,24.74,0,110.9,13.2,21.45,222.3
"2010-10-05 00:05:00",219191,5.291,258.1,0.597,0.084,19.21,108.3361,20.62,21.52,24.81,0,110.9,13.2,21.45,220.1
"2010-10-05 00:05:30",219192,5.178,259.7,1.093,0.048,19.17,108.3361,20.62,21.52,24.86,0,110.9,13.2,21.45,221.7
"2010-10-05 00:06:00",219193,5.174,258.6,0.762,0.058,19.23,108.3361,20.62,21.51,24.87,0,110.9,13.2,21.45,220.6
"2010-10-05 00:06:30",219194,5.072,257.4,0.945,0.105,19.29,108.3361,20.62,21.51,24.86,0,110.9,13.2,21.45,219.4
"2010-10-05 00:07:00",219195,5.119,257.5,0.739,0.07,19.28,108.3361,20.62,21.52,24.81,0,110.9,13.2,21.45,219.5
"2010-10-05 00:07:30",219196,5.034,257.7,0.54,0.066,19.35,108.3361,20.62,21.51,24.75,0,110.9,13.2,21.45,219.7
"2010-10-05 00:08:00",219197,4.919,259.1,1.439,0.088,19.34,108.3361,20.62,21.52,24.72,0,110.9,13.2,21.45,221.1
"2010-10-05 00:08:30",219198,4.888,259.1,0.794,0.109,19.35,108.3361,20.62,21.51,24.68,0,110.9,13.2,21.45,221.1
"2010-10-05 00:09:00",219199,4.736,260.9,0.893,0.073,19.38,108.339,20.63,21.52,24.58,0,110.9,13.2,21.45,222.9
"2010-10-05 00:09:30",219200,4.642,260.1,0.836,0.101,19.42,108.3451,20.65,21.52,24.53,0,110.9,13.2,21.47,222.1
"2010-10-05 00:10:00",219201,4.647,258.9,1.619,0.092,19.42,108.3524,20.66,21.53,24.57,0,110.9,13.2,21.49,220.9
"2010-10-05 00:10:30",219202,4.55,258.4,0.422,0.068,19.42,108.3533,20.67,21.53,24.62,0,110.9,13.2,21.49,220.4
"2010-10-05 00:11:00",219203,4.564,258.2,0.768,0.042,19.4,108.3474,20.65,21.54,24.62,0,110.9,13.2,21.48,220.2
"2010-10-05 00:11:30",219204,4.605,256.6,0.487,0.024,19.29,108.3477,20.65,21.53,24.62,0,110.9,13.2,21.48,218.6
"2010-10-05 00:12:00",219205,4.51,257.5,0.677,0.055,19.41,108.3533,20.67,21.54,24.58,0,110.9,13.2,21.49,219.5
"2010-10-05 00:12:30",219206,4.377,258.1,0.66,0.044,19.47,108.3564,20.67,21.53,24.64,0,110.9,13.2,21.50,220.1
"2010-10-05 00:13:00",219207,4.254,258.4,0.589,0.048,19.41,108.3645,20.7,21.55,24.56,0,110.9,13.2,21.52,220.4
"2010-10-05 00:13:30",219208,4.186,257.5,0.39,0.044,19.42,108.3699,20.71,21.55,24.51,0,110.9,13.2,21.53,219.5
"2010-10-05 00:14:00",219209,4.063,258.8,0.798,0.062,19.36,108.3699,20.71,21.54,24.44,0,110.9,13.2,21.53,220.8
"2010-10-05 00:14:30",219210,4.027,258.8,0.843,0.05,19.31,108.3699,20.71,21.55,24.49,0,110.9,13.2,21.53,220.8
"2010-10-05 00:15:00",219211,4.04,258,0.976,0.061,19.35,108.3699,20.71,21.55,24.49,0,110.9,13.2,21.53,220.0
"2010-10-05 00:15:30",219212,3.873,258,0.993,0.087,19.43,108.3699,20.71,21.56,24.39,0,110.9,13.2,21.53,220.0
"2010-10-05 00:16:00",219213,3.854,256.9,1.192,0.081,19.45,108.3699,20.71,21.56,24.43,0,110.9,13.2,21.53,218.9
"2010-10-05 00:16:30",219214,3.709,258,0.871,0.06,19.47,108.3699,20.71,21.56,24.37,0,110.9,13.2,21.53,220.0
"2010-10-05 00:17:00",219215,3.622,258.7,0.729,0.065,19.39,108.3699,20.71,21.57,24.35,0,110.9,13.2,21.53,220.7
"2010-10-05 00:17:30",219216,3.698,257.8,0.85,0.032,19.51,108.3699,20.71,21.57,24.31,0,110.9,13.2,21.53,219.8
"2010-10-05 00:18:00",219217,3.615,255.4,0.886,0.037,19.52,108.3699,20.71,21.57,24.29,0,110.9,13.2,21.53,217.4
"2010-10-05 00:18:30",219218,3.522,253.8,0.593,0.038,19.45,108.3699,20.71,21.59,24.3,0,110.9,13.2,21.53,215.8
"2010-10-05 00:19:00",219219,3.576,254.3,0.675,0.043,19.46,108.3699,20.71,21.57,24.31,0,110.9,13.2,21.53,216.3
"2010-10-05 00:19:30",219220,3.642,255.4,0.631,0.04,19.51,108.3699,20.71,21.57,24.37,0,110.9,13.19,21.53,217.4
"2010-10-05 00:20:00",219221,3.72,255,0.677,0.049,19.52,108.3699,20.71,21.57,24.4,0,110.9,13.2,21.53,217.0
"2010-10-05 00:20:30",219222,3.899,254.9,1.046,0.119,19.48,108.3699,20.71,21.57,24.44,0,110.9,13.2,21.53,216.9
"2010-10-05 00:21:00",219223,4.125,253.2,1.118,0.066,19.37,108.3699,20.71,21.55,24.43,0,110.9,13.2,21.53,215.2
"2010-10-05 00:21:30",219224,4.19,252,0.304,0.111,19.47,108.3696,20.71,21.54,24.35,0,110.9,13.2,21.53,214.0
"2010-10-05 00:22:00",219225,4.407,252.8,0.677,0.063,19.57,108.364,20.69,21.54,24.36,0,110.9,13.2,21.52,214.8
"2010-10-05 00:22:30",219226,4.549,254.4,1.616,0.097,19.57,108.3533,20.67,21.54,24.35,0,110.9,13.2,21.49,216.4
"2010-10-05 00:23:00",219227,4.695,254.9,1.454,0.09,19.53,108.3429,20.64,21.52,24.53,0,110.9,13.2,21.46,216.9
"2010-10-05 00:23:30",219228,4.708,255.7,1.236,0.063,19.54,108.3364,20.62,21.52,24.64,0,110.9,13.2,21.45,217.7
"2010-10-05 00:24:00",219229,4.719,257.4,1.588,0.122,19.62,108.3361,20.62,21.52,24.81,0,110.9,13.2,21.45,219.4
"2010-10-05 00:24:30",219230,4.975,258.2,1.351,0.1,19.74,108.3361,20.62,21.5,24.98,0,110.9,13.2,21.45,220.2
"2010-10-05 00:25:00",219231,5.094,260.2,1.258,0.138,19.77,108.3361,20.62,21.5,25.08,0,110.9,13.2,21.45,222.2
"2010-10-05 00:25:30",219232,5.105,260,1.313,0.091,19.75,108.3361,20.62,21.48,25.26,0,110.9,13.2,21.45,222.0
"2010-10-05 00:26:00",219233,5.001,257.5,0.728,0.097,19.74,108.3344,20.62,21.49,25.01,0,110.9,13.2,21.44,219.5
"2010-10-05 00:26:30",219234,4.675,257.6,1.796,0.099,19.71,108.333,20.61,21.49,24.88,0,110.9,13.2,21.44,219.6
"2010-10-05 00:27:00",219235,4.666,258.8,2.525,0.093,19.68,108.3311,20.61,21.48,25.07,0,110.9,13.2,21.43,220.8
"2010-10-05 00:27:30",219236,4.692,260.2,1.703,0.091,19.73,108.3195,20.58,21.46,25.55,0,110.9,13.2,21.40,222.2
"2010-10-05 00:28:00",219237,4.763,258.6,0.524,0.058,19.73,108.3069,20.55,21.46,25.88,0,110.9,13.21,21.37,220.6
"2010-10-05 00:28:30",219238,4.585,259.6,1.151,0.066,19.77,108.3024,20.54,21.46,25.68,0,110.9,13.21,21.36,221.6
"2010-10-05 00:29:00",219239,4.749,259.8,0.652,0.071,19.76,108.3024,20.54,21.46,25.96,0,110.9,13.2,21.36,221.8
"2010-10-05 00:29:30",219240,4.678,259.3,1.162,0.052,19.73,108.3024,20.54,21.44,25.84,0,110.9,13.2,21.36,221.3
"2010-10-05 00:30:00",219241,4.82,260.5,0.786,0.076,19.76,108.3024,20.54,21.42,25.88,0,110.9,13.21,21.36,222.5
"2010-10-05 00:30:30",219242,4.906,258.8,0.837,0.062,19.81,108.3024,20.54,21.44,26.11,0,110.9,13.21,21.36,220.8
"2010-10-05 00:31:00",219243,4.977,257.7,0.604,0.047,19.8,108.3024,20.54,21.43,26.02,0,110.9,13.21,21.36,219.7
"2010-10-05 00:31:30",219244,4.965,257.3,0.648,0.057,19.8,108.3004,20.53,21.42,25.41,0,110.9,13.21,21.35,219.3
"2010-10-05 00:32:00",219245,4.919,257.4,1.256,0.15,19.76,108.2985,20.53,21.42,25.72,0,110.9,13.21,21.35,219.4
"2010-10-05 00:32:30",219246,4.931,259.3,0.861,0.069,19.81,108.29,20.5,21.4,25.99,0,110.9,13.21,21.33,221.3
"2010-10-05 00:33:00",219247,5.08,258.3,1.292,0.103,19.8,108.2813,20.48,21.4,25.67,0,110.9,13.2,21.30,220.3
"2010-10-05 00:33:30",219248,5.186,257.8,1.596,0.133,19.76,108.2793,20.48,21.41,25.67,0,110.9,13.2,21.30,219.8
"2010-10-05 00:34:00",219249,5.02,259.6,1.598,0.083,19.86,108.2774,20.47,21.39,25.95,0,110.9,13.2,21.29,221.6
"2010-10-05 00:34:30",219250,5.012,260.1,1.393,0.158,19.84,108.274,20.46,21.38,25.75,0,110.9,13.2,21.29,222.1
"2010-10-05 00:35:00",219251,4.842,258.1,1.13,0.067,19.81,108.2765,20.47,21.38,25.4,0,110.9,13.2,21.29,220.1
"2010-10-05 00:35:30",219252,4.87,257.4,0.55,0.059,19.8,108.2782,20.47,21.4,24.96,0,110.9,13.2,21.30,219.4
"2010-10-05 00:36:00",219253,5.024,257.1,0.769,0.065,19.81,108.2876,20.5,21.39,24.91,0,110.9,13.2,21.32,219.1
"2010-10-05 00:36:30",219254,4.889,255,1.546,0.048,19.84,108.2981,20.52,21.39,24.7,0,110.9,13.2,21.35,217.0
"2010-10-05 00:37:00",219255,4.881,255.1,1.209,0.098,19.81,108.3104,20.56,21.4,24.66,0,110.8,13.2,21.38,217.1
"2010-10-05 00:37:30",219256,4.82,255.4,1.099,0.063,19.74,108.3113,20.56,21.41,24.65,0,110.8,13.21,21.38,217.4
"2010-10-05 00:38:00",219257,4.859,252.6,1.282,0.072,19.89,108.3161,20.57,21.42,24.54,0,110.8,13.21,21.39,214.6
"2010-10-05 00:38:30",219258,4.977,252.4,0.551,0.06,20.03,108.3243,20.59,21.42,24.34,0,110.8,13.21,21.42,214.4
"2010-10-05 00:39:00",219259,5.099,251.9,0.347,0.062,19.93,108.3274,20.6,21.43,24.25,0,110.8,13.21,21.42,213.9
"2010-10-05 00:39:30",219260,4.974,251.9,0.546,0.062,19.92,108.3298,20.61,21.43,24.38,0,110.8,13.21,21.43,213.9
"2010-10-05 00:40:00",219261,5.067,253.3,0.692,0.086,19.86,108.3301,20.61,21.46,24.58,0,110.8,13.21,21.43,215.3
"2010-10-05 00:40:30",219262,5.188,253.7,0.533,0.042,19.82,108.3298,20.61,21.45,24.49,0,110.8,13.22,21.43,215.7
"2010-10-05 00:41:00",219263,5.175,254.1,0.418,0.042,19.77,108.3304,20.61,21.46,24.43,0,110.8,13.22,21.43,216.1
"2010-10-05 00:41:30",219264,5.112,255.4,0.767,0.067,19.75,108.3329,20.61,21.45,24.61,0,110.8,13.22,21.44,217.4
"2010-10-05 00:42:00",219265,4.983,257.6,1.148,0.054,19.8,108.3335,20.62,21.46,24.67,0,110.8,13.22,21.44,219.6
"2010-10-05 00:42:30",219266,4.949,257.5,0.53,0.046,19.84,108.3342,20.62,21.44,24.68,0,110.8,13.22,21.44,219.5
"2010-10-05 00:43:00",219267,5.156,256.9,0.666,0.086,19.72,108.3363,20.62,21.46,24.5,0,110.8,13.22,21.45,218.9
"2010-10-05 00:43:30",219268,5.097,256.3,0.642,0.096,19.77,108.339,20.63,21.45,24.5,0,110.8,13.22,21.45,218.3
"2010-10-05 00:44:00",219269,5.048,254.5,1.228,0.07,19.9,108.339,20.63,21.46,24.54,0,110.8,13.22,21.45,216.5
"2010-10-05 00:44:30",219270,5.12,257.8,1.29,0.125,19.84,108.339,20.63,21.45,24.8,0,110.8,13.22,21.45,219.8
"2010-10-05 00:45:00",219271,5.173,258.9,1.108,0.09,19.89,108.339,20.63,21.48,24.76,0,110.8,13.22,21.45,220.9
"2010-10-05 00:45:30",219272,5.192,257.8,1.109,0.141,19.83,108.339,20.63,21.46,24.75,0,110.8,13.22,21.45,219.8
"2010-10-05 00:46:00",219273,5.154,255.3,0.702,0.076,19.77,108.339,20.63,21.47,25.08,0,110.8,13.22,21.45,217.3
"2010-10-05 00:46:30",219274,5.331,255.7,0.814,0.065,19.81,108.339,20.63,21.46,24.79,0,110.8,13.22,21.45,217.7
"2010-10-05 00:47:00",219275,5.269,256.4,1.453,0.085,19.82,108.339,20.63,21.49,24.51,0,110.8,13.22,21.45,218.4
"2010-10-05 00:47:30",219276,5.189,256.4,0.965,0.085,19.73,108.339,20.63,21.48,24.68,0,110.8,13.23,21.45,218.4
"2010-10-05 00:48:00",219277,5.247,253.4,1.036,0.08,19.83,108.339,20.63,21.49,24.64,0,110.8,13.23,21.45,215.4
"2010-10-05 00:48:30",219278,5.204,253.7,1.097,0.054,19.87,108.339,20.63,21.48,24.47,0,110.8,13.23,21.45,215.7
"2010-10-05 00:49:00",219279,5.198,254.1,1.064,0.06,19.84,108.339,20.63,21.48,24.48,0,110.8,13.23,21.45,216.1
"2010-10-05 00:49:30",219280,5.21,253,0.905,0.058,19.79,108.339,20.63,21.49,24.64,0,110.8,13.22,21.45,215.0
"2010-10-05 00:50:00",219281,5.261,252.8,0.488,0.058,19.78,108.339,20.63,21.48,24.66,0,110.8,13.22,21.45,214.8
"2010-10-05 00:50:30",219282,5.463,251.9,0.472,0.047,19.78,108.3384,20.63,21.48,24.72,0,110.8,13.22,21.45,213.9
"2010-10-05 00:51:00",219283,5.694,249.8,1.118,0.092,19.87,108.3333,20.61,21.48,24.79,0,110.8,13.21,21.44,211.8
"2010-10-05 00:51:30",219284,5.804,249.3,1.433,0.081,19.83,108.3294,20.6,21.48,24.83,0,110.8,13.21,21.43,211.3
"2010-10-05 00:52:00",219285,5.901,251.1,0.487,0.043,19.79,108.3269,20.6,21.48,24.81,0,110.8,13.22,21.42,213.1
"2010-10-05 00:52:30",219286,5.813,251.6,0.393,0.05,19.73,108.3238,20.59,21.48,24.87,0,110.8,13.21,21.41,213.6
"2010-10-05 00:53:00",219287,5.73,250.9,1.547,0.087,19.81,108.328,20.6,21.48,24.91,0,110.8,13.22,21.43,212.9
"2010-10-05 00:53:30",219288,5.629,252.4,0.678,0.08,19.81,108.3294,20.6,21.48,25.04,0,110.8,13.22,21.43,214.4
"2010-10-05 00:54:00",219289,5.701,247.9,1.939,0.15,19.79,108.3285,20.6,21.48,24.78,0,110.8,13.22,21.43,209.9
"2010-10-05 00:54:30",219290,5.858,245.8,0.763,0.063,19.82,108.3342,20.62,21.47,24.53,0,110.8,13.22,21.44,207.8
"2010-10-05 00:55:00",219291,5.669,245.9,0.351,0.053,19.72,108.3393,20.63,21.49,24.67,0,110.8,13.22,21.45,207.9
"2010-10-05 00:55:30",219292,5.69,246.6,0.671,0.107,19.78,108.34,20.63,21.49,24.71,0,110.8,13.23,21.46,208.6
"2010-10-05 00:56:00",219293,5.769,246.2,0.639,0.082,19.72,108.3399,20.63,21.5,24.76,0,110.8,13.23,21.46,208.2
"2010-10-05 00:56:30",219294,5.504,246.9,0.749,0.055,19.86,108.3383,20.63,21.48,24.81,0,110.8,13.23,21.45,208.9
"2010-10-05 00:57:00",219295,5.768,245.4,0.992,0.122,19.83,108.3398,20.63,21.49,24.77,0,110.8,13.23,21.46,207.4
"2010-10-05 00:57:30",219296,5.65,246.6,0.823,0.103,19.81,108.3395,20.63,21.5,24.82,0,110.8,13.23,21.45,208.6
"2010-10-05 00:58:00",219297,5.883,247.4,0.938,0.093,19.75,108.338,20.63,21.48,24.86,0,110.8,13.23,21.45,209.4
"2010-10-05 00:58:30",219298,5.627,245.1,0.766,0.086,19.81,108.331,20.61,21.49,24.96,0,110.8,13.23,21.43,207.1
"2010-10-05 00:59:00",219299,5.668,244.3,2.029,0.056,19.83,108.3227,20.59,21.49,25.17,0,110.8,13.23,21.41,206.3
"2010-10-05 00:59:30",219300,5.801,245.9,0.819,0.11,19.78,108.3157,20.57,21.47,25.17,0,110.8,13.23,21.39,207.9
"2010-10-05 01:00:00",219301,5.851,245.4,0.905,0.123,19.78,108.3125,20.56,21.48,25.28,0,110.8,13.23,21.39,207.4
"2010-10-05 01:00:30",219302,5.75,245.6,0.903,0.091,19.78,108.3092,20.55,21.47,25.3,0,110.8,13.23,21.38,207.6
"2010-10-05 01:01:00",219303,5.624,244.8,1.275,0.108,19.76,108.3104,20.56,21.47,25.38,0,110.8,13.23,21.38,206.8
"2010-10-05 01:01:30",219304,5.815,244.6,0.941,0.094,19.74,108.314,20.57,21.46,25.49,0,110.8,13.23,21.39,206.6
"2010-10-05 01:02:00",219305,5.664,243.5,1.029,0.04,19.75,108.2982,20.52,21.46,25.61,0,110.8,13.23,21.35,205.5
"2010-10-05 01:02:30",219306,5.513,242,1.061,0.065,19.69,108.2879,20.5,21.43,25.52,0,110.8,13.23,21.32,204.0
"2010-10-05 01:03:00",219307,5.498,241.8,0.743,0.066,19.7,108.2859,20.49,21.43,25.51,0,110.8,13.23,21.32,203.8
"2010-10-05 01:03:30",219308,5.442,240.9,0.595,0.075,19.73,108.2892,20.5,21.42,25.56,0,110.8,13.23,21.33,202.9
"2010-10-05 01:04:00",219309,5.419,239.5,0.913,0.075,19.73,108.2893,20.5,21.41,25.67,0,110.8,13.23,21.33,201.5
"2010-10-05 01:04:30",219310,5.429,240.1,0.892,0.052,19.66,108.2925,20.51,21.41,25.86,0,110.8,13.23,21.33,202.1
"2010-10-05 01:05:00",219311,5.591,242.4,1.084,0.051,19.7,108.2934,20.51,21.41,25.86,0,110.8,13.23,21.34,204.4
"2010-10-05 01:05:30",219312,5.558,241.6,0.975,0.06,19.68,108.2934,20.51,21.4,25.81,0,110.8,13.23,21.34,203.6
"2010-10-05 01:06:00",219313,5.467,241.6,1.593,0.061,19.67,108.2958,20.52,21.39,25.76,0,110.8,13.23,21.34,203.6
"2010-10-05 01:06:30",219314,5.441,241.8,0.929,0.038,19.69,108.2967,20.52,21.39,25.76,0,110.8,13.23,21.34,203.8
"2010-10-05 01:07:00",219315,5.333,241.5,1.217,0.067,19.79,108.2976,20.52,21.38,25.72,0,110.8,13.23,21.35,203.5
"2010-10-05 01:07:30",219316,5.327,242,0.79,0.083,19.77,108.2982,20.52,21.4,25.6,0,110.8,13.23,21.35,204.0
"2010-10-05 01:08:00",219317,5.19,240.8,0.921,0.124,19.91,108.2995,20.53,21.39,25.33,0,110.8,13.23,21.35,202.8
"2010-10-05 01:08:30",219318,5.04,241.3,0.734,0.038,19.77,108.2998,20.53,21.38,25.3,0,110.8,13.23,21.35,203.3
"2010-10-05 01:09:00",219319,5.21,243.5,0.486,0.034,19.73,108.2992,20.53,21.41,25.16,0,110.8,13.23,21.35,205.5
"2010-10-05 01:09:30",219320,5.179,246.9,1.858,0.054,19.81,108.3036,20.54,21.41,25.23,0,110.8,13.23,21.36,208.9
"2010-10-05 01:10:00",219321,5.265,249.3,0.549,0.037,19.69,108.3043,20.54,21.42,25.46,0,110.8,13.23,21.36,211.3
"2010-10-05 01:10:30",219322,5.241,249.3,0.387,0.039,19.73,108.3062,20.55,21.42,25.49,0,110.8,13.23,21.37,211.3
"2010-10-05 01:11:00",219323,5.302,250.2,0.599,0.061,19.7,108.3074,20.55,21.42,25.49,0,110.8,13.23,21.37,212.2
"2010-10-05 01:11:30",219324,5.253,250,0.582,0.045,19.69,108.308,20.55,21.4,25.46,0,110.8,13.23,21.37,212.0
"2010-10-05 01:12:00",219325,5.219,249.5,0.668,0.045,19.75,108.308,20.55,21.41,25.38,0,110.8,13.23,21.37,211.5
"2010-10-05 01:12:30",219326,5.16,249.5,0.508,0.059,19.74,108.308,20.55,21.42,25.28,0,110.8,13.23,21.37,211.5
"2010-10-05 01:13:00",219327,5.18,249.1,0.879,0.074,19.8,108.3085,20.55,21.42,25.19,0,110.8,13.23,21.37,211.1
"2010-10-05 01:13:30",219328,5.188,249.8,0.597,0.047,19.71,108.3119,20.56,21.42,25.29,0,110.8,13.24,21.38,211.8
"2010-10-05 01:14:00",219329,5.252,249.9,1.156,0.069,19.73,108.3131,20.56,21.42,25.27,0,110.8,13.24,21.39,211.9
"2010-10-05 01:14:30",219330,5.102,250.4,0.75,0.08,19.75,108.3114,20.56,21.44,25.32,0,110.8,13.24,21.38,212.4
"2010-10-05 01:15:00",219331,5.211,251.3,0.573,0.031,19.72,108.3103,20.56,21.43,25.35,0,110.8,13.24,21.38,213.3
"2010-10-05 01:15:30",219332,5.303,250.1,1.262,0.068,19.69,108.308,20.55,21.44,25.47,0,110.8,13.24,21.37,212.1
"2010-10-05 01:16:00",219333,5.409,249.1,0.723,0.136,19.8,108.308,20.55,21.43,25.47,0,110.8,13.24,21.37,211.1
"2010-10-05 01:16:30",219334,5.236,249.8,1.154,0.06,19.75,108.308,20.55,21.43,25.2,0,110.8,13.24,21.37,211.8
"2010-10-05 01:17:00",219335,5.266,250.3,0.719,0.073,19.7,108.308,20.55,21.43,25.34,0,110.8,13.24,21.37,212.3
"2010-10-05 01:17:30",219336,5.417,251.1,0.517,0.084,19.75,108.308,20.55,21.43,25.42,0,110.8,13.24,21.37,213.1
"2010-10-05 01:18:00",219337,5.548,250.1,0.61,0.056,19.85,108.308,20.55,21.44,25.39,0,110.8,13.24,21.37,212.1
"2010-10-05 01:18:30",219338,5.519,249.3,0.638,0.068,19.87,108.308,20.55,21.42,25.36,0,110.8,13.24,21.37,211.3
"2010-10-05 01:19:00",219339,5.357,249.4,0.9,0.123,19.78,108.308,20.55,21.42,25.35,0,110.8,13.24,21.37,211.4
"2010-10-05 01:19:30",219340,5.302,247,1.207,0.078,19.83,108.308,20.55,21.43,25.12,0,110.8,13.24,21.37,209.0
"2010-10-05 01:20:00",219341,5.168,248,0.749,0.048,19.86,108.308,20.55,21.42,25.19,0,110.8,13.24,21.37,210.0
"2010-10-05 01:20:30",219342,5.247,248.1,0.783,0.057,19.8,108.3083,20.55,21.44,25.19,0,110.8,13.24,21.37,210.1
"2010-10-05 01:21:00",219343,5.2,248.2,0.753,0.039,19.82,108.3088,20.55,21.44,25.21,0,110.8,13.24,21.38,210.2
"2010-10-05 01:21:30",219344,5.226,247.4,0.656,0.046,19.9,108.3108,20.56,21.45,25.04,0,110.8,13.24,21.38,209.4
"2010-10-05 01:22:00",219345,5.33,246.3,0.452,0.045,19.85,108.3195,20.58,21.45,24.7,0,110.8,13.24,21.40,208.3
"2010-10-05 01:22:30",219346,5.239,247.1,0.801,0.049,19.87,108.3328,20.61,21.45,24.82,0,110.8,13.24,21.44,209.1
"2010-10-05 01:23:00",219347,5.413,246.7,0.712,0.067,19.87,108.3404,20.63,21.47,24.72,0,110.8,13.24,21.46,208.7
"2010-10-05 01:23:30",219348,5.392,247.4,1.418,0.082,19.85,108.3415,20.64,21.46,24.72,0,110.8,13.24,21.46,209.4
"2010-10-05 01:24:00",219349,5.611,247.7,0.968,0.118,19.89,108.3418,20.64,21.49,24.78,0,110.8,13.23,21.46,209.7
"2010-10-05 01:24:30",219350,6.157,248.8,0.771,0.083,19.85,108.3418,20.64,21.48,24.88,0,110.8,13.23,21.46,210.8
"2010-10-05 01:25:00",219351,6.093,248.3,0.848,0.078,19.76,108.3406,20.63,21.48,24.85,0,110.8,13.23,21.46,210.3
"2010-10-05 01:25:30",219352,5.966,246.9,0.655,0.023,19.64,108.3364,20.62,21.48,24.89,0,110.8,13.23,21.45,208.9
"2010-10-05 01:26:00",219353,5.944,245.5,0.701,0.058,19.78,108.3294,20.6,21.48,24.93,0,110.8,13.23,21.43,207.5
"2010-10-05 01:26:30",219354,5.857,242.5,1.044,0.065,19.88,108.3252,20.59,21.48,24.72,0,110.8,13.23,21.42,204.5
"2010-10-05 01:27:00",219355,5.651,242.4,1.078,0.077,19.9,108.3336,20.62,21.48,24.6,0,110.8,13.23,21.44,204.4
"2010-10-05 01:27:30",219356,5.579,241.6,0.714,0.091,19.88,108.3398,20.63,21.47,24.54,0,110.8,13.23,21.46,203.6
"2010-10-05 01:28:00",219357,5.617,242,0.995,0.054,19.87,108.3418,20.64,21.49,24.62,0,110.8,13.23,21.46,204.0
"2010-10-05 01:28:30",219358,5.866,241.8,1.046,0.105,19.81,108.3418,20.64,21.48,24.74,0,110.8,13.23,21.46,203.8
"2010-10-05 01:29:00",219359,5.96,241.1,1.456,0.07,19.76,108.3412,20.64,21.49,24.75,0,110.8,13.24,21.46,203.1
"2010-10-05 01:29:30",219360,5.737,238.6,0.858,0.129,19.75,108.3415,20.64,21.49,24.65,0,110.8,13.24,21.46,200.6
"2010-10-05 01:30:00",219361,5.715,237.5,1.111,0.067,19.78,108.3418,20.64,21.48,24.59,0,110.8,13.24,21.46,199.5
"2010-10-05 01:30:30",219362,5.678,236,1.289,0.108,19.79,108.3418,20.64,21.5,24.52,0,110.8,13.25,21.46,198.0
"2010-10-05 01:31:00",219363,5.8,238.7,1.113,0.112,19.78,108.3418,20.64,21.49,24.61,0,110.8,13.25,21.46,200.7
"2010-10-05 01:31:30",219364,6.099,239.7,1.009,0.096,19.81,108.3418,20.64,21.49,24.57,0,110.8,13.25,21.46,201.7
"2010-10-05 01:32:00",219365,6.214,240.2,1.035,0.077,19.77,108.3415,20.64,21.49,24.61,0,110.8,13.25,21.46,202.2
"2010-10-05 01:32:30",219366,6.312,240.9,0.639,0.042,19.8,108.3384,20.63,21.49,24.63,0,110.8,13.25,21.45,202.9
"2010-10-05 01:33:00",219367,6.296,241.4,0.986,0.061,19.78,108.3297,20.61,21.49,24.6,0,110.8,13.25,21.43,203.4
"2010-10-05 01:33:30",219368,6.13,239,0.971,0.089,19.83,108.3235,20.59,21.49,24.55,0,110.8,13.25,21.41,201.0
"2010-10-05 01:34:00",219369,6.05,240.4,0.878,0.073,19.76,108.3254,20.59,21.49,24.55,0,110.8,13.25,21.42,202.4
"2010-10-05 01:34:30",219370,6.094,240.4,0.691,0.102,19.73,108.3285,20.6,21.47,24.54,0,110.8,13.25,21.43,202.4
"2010-10-05 01:35:00",219371,6.116,239.5,0.689,0.042,19.77,108.333,20.61,21.48,24.53,0,110.8,13.25,21.44,201.5
"2010-10-05 01:35:30",219372,6.029,238.5,0.92,0.082,19.88,108.3373,20.63,21.49,24.53,0,110.8,13.25,21.45,200.5
"2010-10-05 01:36:00",219373,6.111,236.8,0.749,0.154,19.77,108.3406,20.63,21.49,24.6,0,110.8,13.25,21.46,198.8
"2010-10-05 01:36:30",219374,6.237,234.9,1.762,0.054,19.83,108.3373,20.63,21.49,24.63,0,110.8,13.25,21.45,196.9
"2010-10-05 01:37:00",219375,6.23,235.9,0.968,0.068,19.77,108.337,20.62,21.5,24.64,0,110.8,13.25,21.45,197.9
"2010-10-05 01:37:30",219376,6.47,234,0.279,0.071,19.72,108.3342,20.62,21.48,24.68,0,110.8,13.25,21.44,196.0
"2010-10-05 01:38:00",219377,6.384,235.1,0.6,0.037,19.71,108.3215,20.58,21.48,24.66,0,110.8,13.25,21.41,197.1
"2010-10-05 01:38:30",219378,6.267,235.5,0.513,0.056,19.74,108.3221,20.59,21.48,24.65,0,110.8,13.25,21.41,197.5
"2010-10-05 01:39:00",219379,6.203,235.4,0.639,0.071,19.78,108.3226,20.59,21.49,24.63,0,110.8,13.25,21.41,197.4
"2010-10-05 01:39:30",219380,6.111,234.2,0.481,0.056,19.82,108.326,20.6,21.48,24.61,0,110.8,13.25,21.42,196.2
"2010-10-05 01:40:00",219381,6.187,233.7,0.672,0.07,19.88,108.3271,20.6,21.49,24.62,0,110.8,13.25,21.42,195.7
"2010-10-05 01:40:30",219382,6.123,234.3,1.008,0.071,19.82,108.3302,20.61,21.52,24.6,0,110.8,13.24,21.43,196.3
"2010-10-05 01:41:00",219383,6.032,235,0.645,0.051,19.74,108.3263,20.6,21.48,24.6,0,110.8,13.24,21.42,197.0
"2010-10-05 01:41:30",219384,6.14,236.1,0.576,0.101,19.73,108.3336,20.62,21.5,24.54,0,110.8,13.24,21.44,198.1
"2010-10-05 01:42:00",219385,6.246,235.5,0.692,0.111,19.81,108.3373,20.63,21.5,24.51,0,110.8,13.23,21.45,197.5
"2010-10-05 01:42:30",219386,6.24,236.3,0.915,0.095,19.78,108.3412,20.64,21.5,24.48,0,110.8,13.24,21.46,198.3
"2010-10-05 01:43:00",219387,6.33,237.1,1.708,0.142,19.74,108.3424,20.64,21.5,24.46,0,110.8,13.24,21.46,199.1
"2010-10-05 01:43:30",219388,6.673,239.9,0.329,0.1,19.81,108.3415,20.64,21.51,24.45,0,110.8,13.23,21.46,201.9
"2010-10-05 01:44:00",219389,6.672,238.4,1.131,0.068,19.81,108.3361,20.62,21.51,24.44,0,110.8,13.24,21.45,200.4
"2010-10-05 01:44:30",219390,6.747,239.3,1,0.117,19.79,108.3254,20.59,21.49,24.37,0,110.8,13.23,21.42,201.3
"2010-10-05 01:45:00",219391,6.794,238.7,0.582,0.064,19.79,108.3241,20.59,21.49,24.27,0,110.8,13.24,21.42,200.7
"2010-10-05 01:45:30",219392,6.723,239.4,0.385,0.088,19.75,108.3241,20.59,21.5,24.29,0,110.8,13.24,21.42,201.4
"2010-10-05 01:46:00",219393,6.598,237.8,0.598,0.088,19.78,108.3225,20.59,21.5,24.35,0,110.8,13.25,21.41,199.8
"2010-10-05 01:46:30",219394,6.914,236.9,0.626,0.169,19.77,108.3174,20.57,21.49,24.47,0,110.8,13.25,21.40,198.9
"2010-10-05 01:47:00",219395,7.495,239.8,1.197,0.082,19.77,108.3156,20.57,21.5,24.23,0,110.8,13.25,21.39,201.8
"2010-10-05 01:47:30",219396,7.224,240,0.554,0.095,19.8,108.3154,20.57,21.49,24.45,0,110.8,13.25,21.39,202.0
"2010-10-05 01:48:00",219397,7.414,239.1,0.484,0.09,19.77,108.3113,20.56,21.48,24.79,0,110.8,13.25,21.38,201.1